Regional Weather Roundup
Issued by NWS State College, PA

Home | Current Version | Previous Version | Text Only | Print | Product List | Glossary Off
Versions: 1 2 3 4 5 6 7 8 9 10 11 12 13 14 15 16 17 18 19 20 21 22 23 24 25 26 27 28 29 30 31 32 33 34 35 36 37 38 39 40 41 42 43 44 45 46 47 48 49 50

000
ASUS41 KCTP 300503
RWRCTP

REGIONAL WEATHER ROUNDUP
NATIONAL WEATHER SERVICE STATE COLLEGE PA
100 AM EDT SAT AUG 30 2014

Note: "fair" indicates few or no clouds below 12,000 feet with no
significant weather and/or obstructions to visibility.

* = STATION THAT DOES NOT REPORT PRECIPITATION /E.G. RAIN...SNOW...ETC/
    THUNDER OR FOG.

PAZ002>004-007>009-013>016-020>023-029>032-300600-
WESTERN PENNSYLVANIA

CITY           SKY/WX    TMP DP  RH WIND       PRES   REMARKS
ERIE           CLEAR     67  54  63 S14       30.09S
MEADVILLE      CLEAR     64  54  69 CALM      30.13R
FRANKLIN*      CLEAR     63  54  72 SE8       30.16S
NEW CASTLE     FAIR      60  57  89 CALM      30.13S
BEAVER COUNTY  NOT AVBL
BUTLER*        CLEAR     63  54  72 E7        30.16S
PITTSBURGH INT CLEAR     64  56  75 CALM      30.12F
PITTSBURGH     PTCLDY    66  56  70 SE7       30.13S
INDIANA*       CLEAR     66  55  68 S9        30.20R
LATROBE        CLEAR     68  59  73 CALM      30.16R
WASHINGTON CO* CLEAR     55  54  94 CALM      30.14R
$$

PAZ004>006-010>012-017>019-024>028-033>037-041-042-045-046-049>053-300600-
CENTRAL PENNSYLVANIA

CITY           SKY/WX    TMP DP  RH WIND       PRES   REMARKS
BRADFORD       CLEAR     57  51  80 SE7       30.19R
DUBOIS         CLEAR     60  52  74 SE7       30.18R
CLEARFIELD     CLEAR     54  53  97 N7        30.20F
JOHNSTOWN      CLEAR     61  53  75 S8        30.21S
ALTOONA        CLEAR     63  55  75 S3        30.22S
STATE COLLEGE  CLEAR     60  53  78 CALM      30.20S
WILLIAMSPORT   CLEAR     58  54  86 VRB5      30.19S
SELINSGROVE    CLEAR     54  52  93 CALM      30.23R
FT INDIANTOWN  CLEAR     55  55 100 NE2       30.24R
CAPITAL CITY   CLEAR     65  55  70 S9        30.22S
HARRISBURG     PTCLDY    64  57  78 S3        30.22R
YORK           CLEAR     64  57  78 VRB3      30.23R
$$

PAZ038>040-043-044-047-048-054-055-060>062-067>071-300600-
EASTERN PENNSYLVANIA

CITY           SKY/WX    TMP DP  RH WIND       PRES   REMARKS
SCRANTON       CLEAR     63  55  75 S9G17     30.23R
MOUNT POCONO   CLOUDY    60  53  77 S7        30.28R
ALLENTOWN      CLEAR     64  56  75 CALM      30.25R
QUAKERTOWN*    CLEAR     57  57 100 CALM      30.27R
READING        CLEAR     63  57  81 S6        30.23S
LANCASTER      CLEAR     57  54  89 E5        30.24R
COATESVILLE    CLEAR     57  57 100 CALM      30.26R
POTTSTOWN      CLEAR     60  57  89 CALM      30.27R
BLUE BELL      CLEAR     55  54  94 CALM      30.25R
DOYLESTOWN     CLEAR     59  57  93 CALM      30.25S
WILLOW GROVE   NOT AVBL
NORTH PHILA    CLEAR     63  55  75 CALM      30.26F
PHILADELPHIA   PTCLDY    66  59  78 SE3       30.25S
$$


USA.gov is the U.S. government's official web portal to all federal, state and local government web resources and services.